• In Lithuania
  • List of Countries
  • For 7 days
  • Water Temperature
  • Satellite Maps
  • Weather Map
  • Weather Widgets
  • user-avatar
    Login

    Hourly Weather Chervonograd

    Today, 11 December, Monday

    Time Temperature Precipitation Wind Pressure Humidity
    00:00 -4°C° 0 mm 6 mps 734 mmHg 69%
    01:00 -4°C° 0 mm 6 mps 733 mmHg 69%
    02:00 -3°C° 0 mm 6 mps 733 mmHg 69%
    03:00 -3°C° 0 mm 6 mps 733 mmHg 70%
    04:00 -3°C° 0 mm 6 mps 733 mmHg 72%
    05:00 -2°C° 0 mm 6 mps 733 mmHg 73%
    06:00 -1°C° 0 mm 5 mps 733 mmHg 75%
    07:00 -1°C° 0 mm 5 mps 733 mmHg 76%
    08:00 0°C° 0 mm 5 mps 733 mmHg 77%
    09:00 0°C° 0 mm 5 mps 733 mmHg 77%
    10:00 +1°C° 0 mm 5 mps 733 mmHg 77%
    11:00 +2°C° 0 mm 5 mps 733 mmHg 77%
    12:00 +3°C° 0 mm 5 mps 733 mmHg 78%
    13:00 +3°C° 0 mm 5 mps 733 mmHg 79%
    14:00 +5°C° 0 mm 4 mps 733 mmHg 80%
    15:00 +4°C° 0 mm 4 mps 733 mmHg 82%
    16:00 +4°C° 0 mm 4 mps 733 mmHg 84%
    17:00 +4°C° 0 mm 4 mps 733 mmHg 86%
    18:00 +3°C° 0 mm 5 mps 733 mmHg 84%
    19:00 +5°C° 0 mm 5 mps 733 mmHg 83%
    20:00 +4°C° 0 mm 6 mps 733 mmHg 82%
    21:00 +5°C° 0 mm 6 mps 734 mmHg 81%
    22:00 +5°C° 0 mm 6 mps 734 mmHg 80%
    23:00 +6°C° 0 mm 7 mps 734 mmHg 79%

    Tomorrow, 12 December, Tuesday

    Time Temperature Precipitation Wind Pressure Humidity
    00:00 +6°C° 0 mm 7 mps 734 mmHg 78%
    01:00 +6°C° 0 mm 7 mps 734 mmHg 77%
    02:00 +6°C° 0 mm 7 mps 734 mmHg 76%
    03:00 +6°C° 0 mm 7 mps 734 mmHg 76%
    04:00 +6°C° 0 mm 7 mps 734 mmHg 76%
    05:00 +5°C° 0 mm 7 mps 734 mmHg 76%
    06:00 +5°C° 0 mm 6 mps 735 mmHg 76%
    07:00 +5°C° 0 mm 6 mps 735 mmHg 76%
    08:00 +5°C° 0 mm 6 mps 735 mmHg 76%
    09:00 +7°C° 0 mm 6 mps 736 mmHg 74%
    10:00 +8°C° 0 mm 6 mps 736 mmHg 72%
    11:00 +9°C° 0 mm 6 mps 737 mmHg 70%
    12:00 +10°C° 0 mm 7 mps 737 mmHg 68%
    13:00 +10°C° 0 mm 8 mps 737 mmHg 66%
    14:00 +11°C° 0 mm 9 mps 737 mmHg 64%
    15:00 +10°C° 0 mm 8 mps 738 mmHg 67%
    16:00 +10°C° 0 mm 7 mps 738 mmHg 70%
    17:00 +9°C° 0 mm 7 mps 739 mmHg 74%
    18:00 +9°C° 0 mm 6 mps 739 mmHg 76%
    19:00 +8°C° 0 mm 5 mps 740 mmHg 78%
    20:00 +8°C° 0 mm 5 mps 740 mmHg 80%
    21:00 +7°C° 0 mm 4 mps 741 mmHg 81%
    22:00 +7°C° 0 mm 4 mps 741 mmHg 82%
    23:00 +7°C° 0 mm 3 mps 741 mmHg 83%

    Day after tomorrow, 13 December, Wednesday

    Time Temperature Precipitation Wind Pressure Humidity
    00:00 +7°C° 0.3 mm 3 mps 742 mmHg 82%
    01:00 +5°C° 0.3 mm 4 mps 742 mmHg 81%
    02:00 +4°C° 0.3 mm 4 mps 743 mmHg 80%
    03:00 +4°C° 0.5 mm 4 mps 743 mmHg 79%
    04:00 +3°C° 0.5 mm 4 mps 743 mmHg 79%
    05:00 +3°C° 0.5 mm 4 mps 744 mmHg 78%
    06:00 +2°C° 0.4 mm 3 mps 744 mmHg 79%
    07:00 +2°C° 0.4 mm 3 mps 745 mmHg 81%
    08:00 +2°C° 0.4 mm 3 mps 745 mmHg 82%
    09:00 +2°C° 0.1 mm 3 mps 745 mmHg 82%
    10:00 +2°C° 0.1 mm 3 mps 746 mmHg 81%
    11:00 +2°C° 0.1 mm 3 mps 746 mmHg 81%
    12:00 +2°C° 0 mm 3 mps 746 mmHg 79%
    13:00 +2°C° 0 mm 3 mps 746 mmHg 78%
    14:00 +3°C° 0 mm 3 mps 746 mmHg 76%
    15:00 +3°C° 0 mm 2 mps 746 mmHg 79%
    16:00 +2°C° 0 mm 2 mps 746 mmHg 82%
    17:00 +3°C° 0 mm 1 mps 746 mmHg 84%
    18:00 +2°C° 0 mm 1 mps 745 mmHg 86%
    19:00 +2°C° 0 mm 1 mps 745 mmHg 87%
    20:00 +1°C° 0 mm 1 mps 745 mmHg 88%
    21:00 +1°C° 0 mm 1 mps 745 mmHg 89%
    22:00 -1°C° 0 mm 2 mps 744 mmHg 89%
    23:00 -1°C° 0 mm 2 mps 744 mmHg 89%

    14 December, Thursday

    Time Temperature Precipitation Wind Pressure Humidity
    00:00 -1°C° 0 mm 2 mps 744 mmHg 89%
    01:00 -1°C° 0 mm 3 mps 743 mmHg 89%
    02:00 -1°C° 0 mm 3 mps 743 mmHg 89%
    03:00 -1°C° 0 mm 3 mps 742 mmHg 89%
    04:00 -2°C° 0 mm 4 mps 742 mmHg 90%
    05:00 -2°C° 0 mm 4 mps 741 mmHg 90%
    06:00 -1°C° 0 mm 4 mps 741 mmHg 88%
    07:00 -1°C° 0 mm 5 mps 740 mmHg 86%
    08:00 -1°C° 0 mm 5 mps 740 mmHg 85%
    09:00 0°C° 0 mm 5 mps 740 mmHg 80%
    10:00 +1°C° 0 mm 5 mps 740 mmHg 76%
    11:00 +1°C° 0 mm 6 mps 739 mmHg 72%
    12:00 +2°C° 0 mm 6 mps 739 mmHg 71%
    13:00 +2°C° 0 mm 5 mps 739 mmHg 70%
    14:00 +3°C° 0 mm 5 mps 738 mmHg 70%
    15:00 +2°C° 0 mm 5 mps 738 mmHg 73%
    16:00 +1°C° 0 mm 4 mps 738 mmHg 77%
    17:00 +1°C° 0 mm 4 mps 738 mmHg 81%
    18:00 0°C° 0 mm 4 mps 738 mmHg 82%
    19:00 0°C° 0 mm 4 mps 738 mmHg 83%
    20:00 0°C° 0 mm 4 mps 737 mmHg 84%
    21:00 0°C° 0.1 mm 4 mps 737 mmHg 83%
    22:00 +1°C° 0.1 mm 5 mps 736 mmHg 83%
    23:00 +1°C° 0.1 mm 5 mps 736 mmHg 82%

    15 December, Friday

    Time Temperature Precipitation Wind Pressure Humidity
    00:00 +1°C° 0 mm 5 mps 735 mmHg 81%
    01:00 +2°C° 0 mm 6 mps 735 mmHg 80%
    02:00 +2°C° 0 mm 6 mps 734 mmHg 79%
    03:00 +2°C° 0 mm 6 mps 733 mmHg 79%
    04:00 +2°C° 0 mm 7 mps 733 mmHg 79%
    05:00 +3°C° 0 mm 7 mps 732 mmHg 80%
    06:00 +3°C° 0 mm 7 mps 732 mmHg 80%
    07:00 +3°C° 0 mm 6 mps 732 mmHg 80%
    08:00 +3°C° 0 mm 6 mps 732 mmHg 80%
    09:00 +4°C° 0.1 mm 6 mps 732 mmHg 80%
    10:00 +4°C° 0.1 mm 6 mps 733 mmHg 80%
    11:00 +5°C° 0.1 mm 6 mps 733 mmHg 80%
    12:00 +5°C° 0.3 mm 5 mps 734 mmHg 81%
    13:00 +5°C° 0.3 mm 4 mps 734 mmHg 81%
    14:00 +4°C° 0.3 mm 4 mps 735 mmHg 81%
    15:00 +4°C° 0.1 mm 3 mps 736 mmHg 81%
    16:00 +4°C° 0.1 mm 3 mps 736 mmHg 81%
    17:00 +4°C° 0.1 mm 2 mps 737 mmHg 81%
    18:00 +4°C° 0 mm 2 mps 737 mmHg 80%
    19:00 +4°C° 0 mm 2 mps 737 mmHg 80%
    20:00 +3°C° 0 mm 2 mps 738 mmHg 79%
    21:00 +4°C° 0 mm 1 mps 738 mmHg 79%
    22:00 +4°C° 0 mm 1 mps 738 mmHg 79%
    23:00 +4°C° 0 mm 1 mps 738 mmHg 78%

    16 December, Saturday

    Time Temperature Precipitation Wind Pressure Humidity
    00:00 +4°C° 0.3 mm 1 mps 737 mmHg 79%
    01:00 +4°C° 0.3 mm 1 mps 737 mmHg 79%
    02:00 +3°C° 0.3 mm 2 mps 737 mmHg 79%
    03:00 +2°C° 1.4 mm 2 mps 736 mmHg 83%
    04:00 +1°C° 1.4 mm 3 mps 736 mmHg 87%
    05:00 0°C° 1.4 mm 3 mps 736 mmHg 91%
    06:00 0°C° 0.4 mm 3 mps 735 mmHg 93%
    07:00 0°C° 0.4 mm 3 mps 735 mmHg 94%
    08:00 -1°C° 0.4 mm 4 mps 735 mmHg 95%
    09:00 0°C° 0.2 mm 3 mps 735 mmHg 95%
    10:00 0°C° 0.2 mm 3 mps 736 mmHg 96%
    11:00 0°C° 0.2 mm 3 mps 736 mmHg 96%
    12:00 0°C° 0.2 mm 3 mps 736 mmHg 97%
    13:00 0°C° 0.2 mm 3 mps 736 mmHg 97%
    14:00 +1°C° 0.2 mm 2 mps 736 mmHg 98%
    15:00 +1°C° 0.2 mm 2 mps 737 mmHg 98%
    16:00 +1°C° 0.2 mm 2 mps 737 mmHg 97%
    17:00 +1°C° 0.2 mm 2 mps 737 mmHg 97%
    18:00 +1°C° 0.3 mm 2 mps 738 mmHg 97%
    19:00 +1°C° 0.3 mm 2 mps 738 mmHg 96%
    20:00 0°C° 0.3 mm 3 mps 738 mmHg 95%
    21:00 0°C° 0.6 mm 3 mps 738 mmHg 95%
    22:00 0°C° 0.6 mm 3 mps 738 mmHg 95%
    23:00 0°C° 0.6 mm 3 mps 739 mmHg 95%
    Show more